| time (UTC) | temp F | wind direction | speed knots | gust knots | rain 1hr in | rain 24hr in | rain mn in | humidity % | barometer mb |
| 20260504080603 | 45 | 350 | 22.6 | 28.7 | 0.00 | 0.00 | 0.00 | 60 | 1013.8 |
| 20260504050415 | 52 | 15 | 22.6 | 28.7 | 0.00 | 0.00 | 0.00 | 37 | 1011.0 |
| 20260504045912 | 53 | 359 | 17.4 | 26.9 | 0.00 | 0.00 | 0.00 | 36 | 1011.2 |
| 20260504045408 | 53 | 341 | 20.0 | 28.7 | 0.00 | 0.00 | 0.00 | 37 | 1011.1 |
| 20260504044904 | 52 | 1 | 22.6 | 26.1 | 0.00 | 0.00 | 0.00 | 38 | 1011.4 |
| 20260504044402 | 52 | 356 | 21.7 | 31.3 | 0.00 | 0.00 | 0.00 | 39 | 1010.9 |
| 20260504043859 | 52 | 345 | 15.6 | 26.9 | 0.00 | 0.00 | 0.00 | 40 | 1010.7 |
| 20260504043356 | 53 | 346 | 18.2 | 23.5 | 0.00 | 0.00 | 0.00 | 41 | 1010.6 |
| 20260504042853 | 54 | 0 | 21.7 | 30.4 | 0.00 | 0.00 | 0.00 | 41 | 1010.4 |
| 20260504042349 | 54 | 347 | 16.5 | 23.5 | 0.00 | 0.00 | 0.00 | 41 | 1010.5 |
| 20260504041846 | 55 | 351 | 20.9 | 25.2 | 0.00 | 0.00 | 0.00 | 40 | 1009.9 |
| 20260504041342 | 55 | 331 | 14.8 | 26.1 | 0.00 | 0.00 | 0.00 | 38 | 1010.1 |
| 20260504040838 | 56 | 358 | 13.9 | 20.9 | 0.00 | 0.00 | 0.00 | 38 | 1009.7 |
| 20260504040336 | 56 | 5 | 13.9 | 20.0 | 0.00 | 0.00 | 0.00 | 38 | 1009.7 |
| 20260504035831 | 56 | 3 | 13.9 | 16.5 | 0.00 | 0.00 | 0.00 | 37 | 1009.7 |
| 20260504035330 | 56 | 355 | 13.0 | 15.6 | 0.00 | 0.00 | 0.00 | 37 | 1009.5 |
| 20260504034826 | 56 | 349 | 13.0 | 14.8 | 0.00 | 0.00 | 0.00 | 37 | 1009.6 |
| 20260504034324 | 57 | 357 | 13.9 | 18.2 | 0.00 | 0.00 | 0.00 | 36 | 1009.6 |
| 20260504033821 | 57 | 357 | 12.2 | 14.8 | 0.00 | 0.00 | 0.00 | 36 | 1009.2 |
| 20260504033319 | 57 | 8 | 15.6 | 20.0 | 0.00 | 0.00 | 0.00 | 36 | 1009.1 |
| 20260504032815 | 57 | 349 | 15.6 | 18.2 | 0.00 | 0.00 | 0.00 | 36 | 1009.2 |
| 20260504032312 | 57 | 350 | 13.9 | 18.2 | 0.00 | 0.00 | 0.00 | 36 | 1008.9 |
| 20260504031809 | 57 | 353 | 20.0 | 25.2 | 0.00 | 0.00 | 0.00 | 36 | 1008.7 |
| 20260504031307 | 58 | 6 | 13.0 | 21.7 | 0.00 | 0.00 | 0.00 | 35 | 1008.8 |
| 20260504030803 | 58 | 344 | 13.9 | 19.1 | 0.00 | 0.00 | 0.00 | 35 | 1008.9 |
| 20260504030300 | 59 | 5 | 13.9 | 15.6 | 0.00 | 0.00 | 0.00 | 35 | 1008.8 |
| 20260504025756 | 59 | 359 | 17.4 | 18.2 | 0.00 | 0.00 | 0.00 | 35 | 1008.7 |
| 20260504025253 | 59 | 351 | 10.4 | 15.6 | 0.00 | 0.00 | 0.00 | 35 | 1008.8 |
| 20260504024749 | 59 | 345 | 14.8 | 16.5 | 0.00 | 0.00 | 0.00 | 35 | 1008.5 |
| 20260504024246 | 60 | 353 | 13.0 | 14.8 | 0.00 | 0.00 | 0.00 | 35 | 1008.8 |
| 20260504023743 | 60 | 352 | 11.3 | 14.8 | 0.00 | 0.00 | 0.00 | 34 | 1008.6 |
| 20260504023239 | 61 | 1 | 13.0 | 15.6 | 0.00 | 0.00 | 0.00 | 34 | 1008.5 |
| 20260504022735 | 61 | 4 | 13.9 | 16.5 | 0.00 | 0.00 | 0.00 | 33 | 1008.6 |
| 20260504022232 | 62 | 7 | 11.3 | 13.9 | 0.00 | 0.00 | 0.00 | 30 | 1008.8 |
| 20260504021729 | 66 | 342 | 6.1 | 7.8 | 0.00 | 0.00 | 0.00 | 23 | 1008.5 |
| 20260504021226 | 66 | 342 | 6.1 | 7.8 | 0.00 | 0.00 | 0.00 | 23 | 1008.5 |
| 20260504020723 | 66 | 342 | 6.1 | 7.8 | 0.00 | 0.00 | 0.00 | 23 | 1008.6 |
| 20260504020220 | 66 | 342 | 6.1 | 7.8 | 0.00 | 0.00 | 0.00 | 23 | 1008.3 |
| 20260504015716 | 66 | 342 | 6.1 | 7.8 | 0.00 | 0.00 | 0.00 | 23 | 1008.6 |
| 20260504015212 | 66 | 345 | 7.8 | 8.7 | 0.00 | 0.00 | 0.00 | 23 | 1008.5 |
| 20260504014708 | 67 | 332 | 5.2 | 8.7 | 0.00 | 0.00 | 0.00 | 22 | 1008.6 |
| 20260504014205 | 67 | 355 | 5.2 | 7.0 | 0.00 | 0.00 | 0.00 | 22 | 1008.7 |
| 20260504013703 | 67 | 352 | 7.0 | 9.6 | 0.00 | 0.00 | 0.00 | 21 | 1008.7 |
| 20260504013200 | 67 | 332 | 7.8 | 9.6 | 0.00 | 0.00 | 0.00 | 21 | 1008.8 |
| 20260504012656 | 68 | 332 | 6.1 | 8.7 | 0.00 | 0.00 | 0.00 | 20 | 1008.6 |
| 20260504012155 | 69 | 346 | 9.6 | 11.3 | 0.00 | 0.00 | 0.00 | 20 | 1008.7 |
| 20260504011651 | 69 | 0 | 7.8 | 9.6 | 0.00 | 0.00 | 0.00 | 20 | 1008.7 |
| 20260504011148 | 69 | 348 | 9.6 | 12.2 | 0.00 | 0.00 | 0.00 | 20 | 1008.7 |
| 20260504010644 | 69 | 330 | 7.8 | 12.2 | 0.00 | 0.00 | 0.00 | 20 | 1008.3 |
| 20260504010139 | 69 | 350 | 10.4 | 13.0 | 0.00 | 0.00 | 0.00 | 20 | 1008.6 |
| 20260504005637 | 69 | 304 | 7.0 | 12.2 | 0.00 | 0.00 | 0.00 | 20 | 1008.6 |
| 20260504005133 | 70 | 313 | 9.6 | 13.0 | 0.00 | 0.00 | 0.00 | 20 | 1008.8 |
| 20260504004632 | 70 | 346 | 11.3 | 12.2 | 0.00 | 0.00 | 0.00 | 19 | 1008.8 |
| 20260504004128 | 70 | 330 | 8.7 | 11.3 | 0.00 | 0.00 | 0.00 | 20 | 1008.9 |
| 20260504003625 | 70 | 302 | 7.8 | 8.7 | 0.00 | 0.00 | 0.00 | 20 | 1009.0 |
| 20260504003121 | 70 | 295 | 7.0 | 13.0 | 0.00 | 0.00 | 0.00 | 20 | 1008.8 |
| 20260504002618 | 70 | 300 | 6.1 | 11.3 | 0.00 | 0.00 | 0.00 | 20 | 1009.0 |
| 20260504002116 | 70 | 292 | 6.1 | 11.3 | 0.00 | 0.00 | 0.00 | 20 | 1008.9 |
| 20260504001614 | 70 | 315 | 8.7 | 11.3 | 0.00 | 0.00 | 0.00 | 20 | 1008.9 |
| 20260504001109 | 70 | 322 | 10.4 | 13.9 | 0.00 | 0.00 | 0.00 | 20 | 1009.1 |
| 20260504000607 | 70 | 320 | 7.8 | 7.8 | 0.00 | 0.00 | 0.00 | 20 | 1009.3 |
| 20260504000104 | 70 | 304 | 10.4 | 13.0 | 0.00 | 0.00 | 0.00 | 20 | 1009.1 |
| 20260503235602 | 70 | 301 | 11.3 | 16.5 | 0.00 | 0.00 | 0.00 | 20 | 1009.2 |
| 20260503235058 | 71 | 331 | 7.8 | 11.3 | 0.00 | 0.00 | 0.00 | 20 | 1009.1 |
| 20260503234556 | 71 | 278 | 7.8 | 11.3 | 0.00 | 0.00 | 0.00 | 19 | 1009.0 |
| 20260503234054 | 71 | 291 | 7.0 | 8.7 | 0.00 | 0.00 | 0.00 | 19 | 1009.2 |
| 20260503233550 | 71 | 332 | 10.4 | 14.8 | 0.00 | 0.00 | 0.00 | 20 | 1009.1 |
| 20260503233046 | 70 | 307 | 7.8 | 9.6 | 0.00 | 0.00 | 0.00 | 20 | 1009.1 |
| 20260503232544 | 71 | 315 | 10.4 | 13.0 | 0.00 | 0.00 | 0.00 | 19 | 1009.2 |
| 20260503232041 | 71 | 275 | 10.4 | 13.9 | 0.00 | 0.00 | 0.00 | 19 | 1009.3 |
| 20260503231539 | 70 | 273 | 9.6 | 13.9 | 0.00 | 0.00 | 0.00 | 20 | 1009.5 |
| 20260503231035 | 71 | 262 | 10.4 | 15.6 | 0.00 | 0.00 | 0.00 | 19 | 1009.5 |
| 20260503230532 | 71 | 313 | 5.2 | 13.0 | 0.00 | 0.00 | 0.00 | 19 | 1009.2 |
| 20260503230030 | 71 | 267 | 7.0 | 7.8 | 0.00 | 0.00 | 0.00 | 19 | 1009.6 |
| 20260503225526 | 71 | 260 | 9.6 | 12.2 | 0.00 | 0.00 | 0.00 | 19 | 1009.6 |
| 20260503225021 | 71 | 282 | 13.9 | 18.2 | 0.00 | 0.00 | 0.00 | 19 | 1009.3 |
| 20260503224519 | 71 | 292 | 7.8 | 13.9 | 0.00 | 0.00 | 0.00 | 19 | 1009.6 |
| 20260503224017 | 71 | 288 | 7.0 | 11.3 | 0.00 | 0.00 | 0.00 | 19 | 1009.8 |
| 20260503223515 | 71 | 310 | 9.6 | 14.8 | 0.00 | 0.00 | 0.00 | 20 | 1009.6 |
| 20260503223010 | 71 | 258 | 9.6 | 13.9 | 0.00 | 0.00 | 0.00 | 19 | 1009.6 |
| 20260503222508 | 71 | 293 | 6.1 | 11.3 | 0.00 | 0.00 | 0.00 | 19 | 1009.8 |
| 20260503222006 | 71 | 307 | 8.7 | 14.8 | 0.00 | 0.00 | 0.00 | 19 | 1009.8 |
| 20260503221504 | 70 | 268 | 5.2 | 7.0 | 0.00 | 0.00 | 0.00 | 19 | 1009.8 |
| 20260503221001 | 70 | 278 | 10.4 | 14.8 | 0.00 | 0.00 | 0.00 | 19 | 1010.0 |
| 20260503220457 | 70 | 280 | 10.4 | 15.6 | 0.00 | 0.00 | 0.00 | 19 | 1009.8 |
| 20260503215954 | 70 | 319 | 9.6 | 9.6 | 0.00 | 0.00 | 0.00 | 19 | 1009.9 |
| 20260503215451 | 71 | 275 | 9.6 | 15.6 | 0.00 | 0.00 | 0.00 | 19 | 1010.1 |
| 20260503214948 | 71 | 288 | 10.4 | 14.8 | 0.00 | 0.00 | 0.00 | 20 | 1010.0 |
| 20260503214446 | 70 | 279 | 5.2 | 8.7 | 0.00 | 0.00 | 0.00 | 20 | 1010.2 |
| 20260503213943 | 69 | 284 | 12.2 | 13.0 | 0.00 | 0.00 | 0.00 | 19 | 1010.2 |
| 20260503213442 | 70 | 298 | 12.2 | 15.6 | 0.00 | 0.00 | 0.00 | 19 | 1010.4 |
| 20260503212937 | 71 | 277 | 11.3 | 16.5 | 0.00 | 0.00 | 0.00 | 19 | 1010.5 |
| 20260503212435 | 70 | 277 | 7.0 | 7.8 | 0.00 | 0.00 | 0.00 | 19 | 1010.4 |
| 20260503211932 | 70 | 228 | 7.8 | 13.9 | 0.00 | 0.00 | 0.00 | 19 | 1010.6 |
| 20260503211429 | 71 | 299 | 10.4 | 20.0 | 0.00 | 0.00 | 0.00 | 20 | 1010.5 |
| 20260503210924 | 70 | 273 | 6.1 | 8.7 | 0.00 | 0.00 | 0.00 | 20 | 1010.7 |
| 20260503210422 | 69 | 320 | 4.3 | 14.8 | 0.00 | 0.00 | 0.00 | 21 | 1010.8 |
| 20260503205916 | 69 | 291 | 10.4 | 16.5 | 0.00 | 0.00 | 0.00 | 19 | 1010.8 |
| 20260503205414 | 69 | 277 | 11.3 | 14.8 | 0.00 | 0.00 | 0.00 | 20 | 1011.0 |
| 20260503204909 | 70 | 295 | 13.9 | 18.2 | 0.00 | 0.00 | 0.00 | 20 | 1010.9 |
| 20260503204407 | 69 | 286 | 6.1 | 11.3 | 0.00 | 0.00 | 0.00 | 20 | 1010.8 |
| 20260503203904 | 69 | 263 | 8.7 | 11.3 | 0.00 | 0.00 | 0.00 | 20 | 1011.0 |
| 20260503203401 | 70 | 305 | 12.2 | 16.5 | 0.00 | 0.00 | 0.00 | 20 | 1011.1 |
| 20260503202858 | 70 | 248 | 7.0 | 9.6 | 0.00 | 0.00 | 0.00 | 21 | 1011.1 |
| 20260503202356 | 68 | 283 | 7.8 | 9.6 | 0.00 | 0.00 | 0.00 | 21 | 1011.1 |
| 20260503201854 | 69 | 255 | 9.6 | 12.2 | 0.00 | 0.00 | 0.00 | 21 | 1011.4 |
| 20260503201351 | 68 | 259 | 6.1 | 12.2 | 0.00 | 0.00 | 0.00 | 21 | 1011.4 |
| 20260503200849 | 68 | 291 | 11.3 | 13.9 | 0.00 | 0.00 | 0.00 | 22 | 1011.2 |
| 20260503200344 | 69 | 281 | 10.4 | 13.9 | 0.00 | 0.00 | 0.00 | 22 | 1011.2 |
| 20260503195842 | 69 | 265 | 6.1 | 9.6 | 0.00 | 0.00 | 0.00 | 22 | 1011.4 |
| 20260503195338 | 68 | 259 | 11.3 | 13.9 | 0.00 | 0.00 | 0.00 | 22 | 1011.6 |
| 20260503194835 | 68 | 307 | 6.1 | 9.6 | 0.00 | 0.00 | 0.00 | 21 | 1011.7 |
| 20260503194331 | 68 | 325 | 5.2 | 7.8 | 0.00 | 0.00 | 0.00 | 22 | 1011.8 |
| 20260503193828 | 69 | 278 | 14.8 | 18.2 | 0.00 | 0.00 | 0.00 | 22 | 1012.0 |
| 20260503193324 | 68 | 291 | 3.5 | 12.2 | 0.00 | 0.00 | 0.00 | 22 | 1011.9 |
| 20260503192820 | 67 | 244 | 6.1 | 13.0 | 0.00 | 0.00 | 0.00 | 21 | 1011.8 |
| 20260503192315 | 67 | 261 | 4.3 | 11.3 | 0.00 | 0.00 | 0.00 | 23 | 1012.0 |
| 20260503191811 | 68 | 288 | 2.6 | 13.0 | 0.00 | 0.00 | 0.00 | 22 | 1012.1 |
| 20260503191309 | 67 | 266 | 9.6 | 13.0 | 0.00 | 0.00 | 0.00 | 22 | 1012.1 |
| 20260503190806 | 67 | 275 | 6.1 | 9.6 | 0.00 | 0.00 | 0.00 | 24 | 1012.0 |
| 20260503190303 | 67 | 279 | 5.2 | 8.7 | 0.00 | 0.00 | 0.00 | 23 | 1012.3 |
| 20260503185801 | 66 | 282 | 0.0 | 12.2 | 0.00 | 0.00 | 0.00 | 24 | 1012.6 |
| 20260503185256 | 66 | 328 | 9.6 | 14.8 | 0.00 | 0.00 | 0.00 | 24 | 1012.6 |
| 20260503184755 | 67 | 301 | 11.3 | 13.0 | 0.00 | 0.00 | 0.00 | 23 | 1012.6 |
| 20260503184252 | 66 | 272 | 9.6 | 13.9 | 0.00 | 0.00 | 0.00 | 23 | 1012.6 |
| 20260503183748 | 66 | 298 | 9.6 | 11.3 | 0.00 | 0.00 | 0.00 | 23 | 1012.6 |
| 20260503183245 | 66 | 293 | 8.7 | 11.3 | 0.00 | 0.00 | 0.00 | 23 | 1012.7 |
| 20260503182743 | 66 | 272 | 9.6 | 12.2 | 0.00 | 0.00 | 0.00 | 23 | 1012.8 |
| 20260503182242 | 66 | 328 | 5.2 | 13.0 | 0.00 | 0.00 | 0.00 | 23 | 1012.7 |
| 20260503181738 | 67 | 289 | 3.5 | 8.7 | 0.00 | 0.00 | 0.00 | 23 | 1012.7 |
| 20260503181235 | 66 | 262 | 6.1 | 9.6 | 0.00 | 0.00 | 0.00 | 23 | 1012.6 |
| 20260503180731 | 66 | 271 | 2.6 | 5.2 | 0.00 | 0.00 | 0.00 | 23 | 1012.9 |
| 20260503180230 | 67 | 297 | 4.3 | 7.8 | 0.00 | 0.00 | 0.00 | 22 | 1012.9 |
| 20260503175726 | 66 | 213 | 3.5 | 9.6 | 0.00 | 0.00 | 0.00 | 23 | 1012.8 |
| 20260503175224 | 66 | 343 | 3.5 | 11.3 | 0.00 | 0.00 | 0.00 | 23 | 1013.0 |
| 20260503174720 | 66 | 354 | 1.7 | 9.6 | 0.00 | 0.00 | 0.00 | 22 | 1013.0 |
| 20260503174218 | 66 | 351 | 8.7 | 13.0 | 0.00 | 0.00 | 0.00 | 24 | 1013.0 |
| 20260503173713 | 65 | 320 | 7.8 | 11.3 | 0.00 | 0.00 | 0.00 | 22 | 1013.4 |
| 20260503173209 | 65 | 337 | 9.6 | 13.0 | 0.00 | 0.00 | 0.00 | 22 | 1013.4 |
| 20260503172706 | 65 | 327 | 7.8 | 13.0 | 0.00 | 0.00 | 0.00 | 24 | 1013.3 |
| 20260503172203 | 65 | 332 | 7.8 | 13.0 | 0.00 | 0.00 | 0.00 | 24 | 1013.5 |
| 20260503171659 | 64 | 330 | 7.8 | 13.0 | 0.00 | 0.00 | 0.00 | 24 | 1013.4 |
| 20260503171157 | 64 | 324 | 7.0 | 12.2 | 0.00 | 0.00 | 0.00 | 24 | 1013.3 |
| 20260503170654 | 63 | 354 | 8.7 | 9.6 | 0.00 | 0.00 | 0.00 | 25 | 1013.3 |
| 20260503170151 | 64 | 334 | 10.4 | 13.0 | 0.00 | 0.00 | 0.00 | 26 | 1013.1 |
| 20260503160112 | 66 | 230 | 5.2 | 11.3 | 0.00 | 0.00 | 0.00 | 22 | 1013.4 |
| 20260503150542 | 61 | 270 | 0.0 | 3.5 | 0.00 | 0.00 | 0.00 | 33 | 1013.5 |
| 20260503130932 | 50 | 125 | 0.0 | 0.0 | 0.00 | 0.00 | 0.00 | 62 | 1014.4 |
| 20260503130430 | 48 | 248 | 0.0 | 0.0 | 0.00 | 0.00 | 0.00 | 63 | 1014.0 |
| 20260503110829 | 45 | 317 | 1.7 | 1.7 | 0.00 | 0.00 | 0.00 | 69 | 1014.7 |
| 20260503110325 | 46 | 319 | 0.9 | 1.7 | 0.00 | 0.00 | 0.00 | 67 | 1014.9 |
| 20260503100252 | 44 | 358 | 0.0 | 1.7 | 0.00 | 0.00 | 0.00 | 73 | 1015.3 |
| 20260503090211 | 42 | 34 | 0.0 | 0.0 | 0.00 | 0.00 | 0.00 | 75 | 1015.5 |
| 20260503081138 | 46 | 46 | 0.0 | 0.0 | 0.00 | 0.00 | 0.00 | 67 | 1016.0 |